Location: Pl�tzky
(52.0521°N, 11.8020°E)
Time: 14:52:31
(UTC+00:00)

CSL-04 Rocket - Pass Details

Date: 22 November 2019
Orbit: 806 x 860 km, 99.0° (Epoch: 06 December)

Event Time Altitude Azimuth Distance (km) Brightness Sun altitude
Rises 16:28:59 0° 133° (SE) 3,337 6.5 -11.3°
Reaches altitude 10° 16:31:30 10° 124° (SE) 2,402 5.7 -11.7°
Maximum altitude 16:36:14 34° 61° (ENE) 1,304 4.2 -12.4°
Drops below altitude 10° 16:40:58 10° 358° (N) 2,402 5.9 -13.1°
Sets 16:43:28 0° 350° (N) 3,336 6.8 -13.5°
